Terminal Aerodrome Forecast
Issued by NWS Sterling, VA

Current Version | Previous Version | Graphics & Text | Print | Product List | Glossary On
Versions: 1 2 3 4 5 6 7 8 9 10 11 12 13 14 15 16 17 18 19 20 21
000
FTUS41 KLWX 311500 AAA
TAFDCA
TAF AMD
KDCA 311502Z 3115/0112 17004KT P6SM FEW060
     FM311600 19009KT P6SM SCT060
     FM010200 17005KT P6SM BKN070=

USA.gov is the U.S. government's official web portal to all federal, state and local government web resources and services.